Weather History for KITR - January, 2014

Change the Weather History Date:

Friday, January 3, 2014

  Actual Average Record
Temperature  
Mean Temperature 43 °F 29 °F  
Max Temperature 64 °F 41 °F 73 °F (1997)
Min Temperature 22 °F 16 °F -16 °F (1911)
Degree Days  
Heating Degree Days 22    
Moisture  
Dew Point 17 °F    
Average Humidity 43    
Maximum Humidity 74    
Minimum Humidity 16    
Precipitation  
Precipitation 0.00 in 0.01 in 0.30 in (1949)
Month to date precipitation T 0.03  
Year to date precipitation T 0.03  
Sea Level Pressure  
Sea Level Pressure 29.75 in    
Wind  
Wind Speed 11 mph (WSW)    
Max Wind Speed 17 mph    
Max Gust Speed 25 mph    
Visibility 10 miles    
Events      
T = Trace of Precipitation, MM = Missing Value Source: NWS Daily Summary

Daily Weather History Graph

Daily Weather History Graph

Search for Another Location

Airport or City:

Trip Planner

Search our weather history database for the weather conditions in past years. The results will help you decide how hot, cold, wet, or windy it might be!

Date:

Astronomy

Jan. 03, 2014 Rise Set
Actual Time 7:08 AM MST 4:38 PM MST
Civil Twilight 6:39 AM MST 5:08 PM MST
Nautical Twilight 6:05 AM MST 5:42 PM MST
Astronomical Twilight 5:33 AM MST 6:14 PM MST
Moon 8:37 AM MST (1/3) 7:49 PM MST (1/3)
Length of Visible Light 10h 29m
Length of Day
9h 29m
Waxing Crescent, 8% of the Moon is Illuminated
Jan 3
Waxing Crescent
Jan 7
First Quarter
Jan 15
Full
Jan 23
Last Quarter
Jan 30
New

Hourly Weather History & Observations

Time (MST) Temp. Windchill Dew Point Humidity Pressure Visibility Wind Dir Wind Speed Gust Speed Precip Events Conditions
12:53 AM 28.0 °F 20.0 °F 17.1 °F 63% 30.02 in 10.0 mi SW 8.1 mph - N/A   Clear
1:53 AM 24.1 °F 13.1 °F 15.1 °F 69% 30.00 in 10.0 mi SW 11.5 mph - N/A   Clear
2:53 AM 23.0 °F 11.7 °F 16.0 °F 74% 29.98 in 10.0 mi WSW 11.5 mph - N/A   Clear
3:53 AM 25.0 °F 14.2 °F 16.0 °F 69% 29.94 in 10.0 mi WSW 11.5 mph - N/A   Clear
4:53 AM 23.0 °F 12.4 °F 15.1 °F 72% 29.95 in 10.0 mi West 10.4 mph - N/A   Clear
5:53 AM 24.1 °F 14.4 °F 16.0 °F 71% 29.94 in 10.0 mi West 9.2 mph - N/A   Clear
6:53 AM 26.1 °F 16.2 °F 16.0 °F 66% 29.91 in 10.0 mi West 10.4 mph - N/A   Clear
7:53 AM 27.0 °F 19.5 °F 17.1 °F 66% 29.89 in 10.0 mi West 6.9 mph - N/A   Clear
8:53 AM 39.9 °F 33.9 °F 21.9 °F 49% 29.86 in 10.0 mi WSW 9.2 mph - N/A   Clear
9:53 AM 55.9 °F - 21.0 °F 26% 29.79 in 10.0 mi SW 10.4 mph - N/A   Clear
10:53 AM 60.1 °F - 19.0 °F 20% 29.74 in 10.0 mi SW 13.8 mph - N/A   Clear
11:53 AM 61.0 °F - 18.0 °F 19% 29.68 in 10.0 mi SW 17.3 mph - N/A   Clear
12:53 PM 63.0 °F - 17.1 °F 17% 29.62 in 10.0 mi SW 17.3 mph - N/A   Clear
1:53 PM 64.0 °F - 17.1 °F 16% 29.61 in 10.0 mi SW 15.0 mph - N/A   Clear
2:53 PM 62.1 °F - 17.1 °F 18% 29.60 in 10.0 mi SSW 13.8 mph - N/A   Clear
3:53 PM 57.9 °F - 17.1 °F 20% 29.59 in 10.0 mi SSW 9.2 mph - N/A   Clear
4:53 PM 46.9 °F - 16.0 °F 29% 29.61 in 10.0 mi SSW 12.7 mph - N/A   Clear
5:53 PM 44.1 °F 37.1 °F 15.1 °F 31% 29.61 in 10.0 mi SSW 15.0 mph - N/A   Clear
6:53 PM 41.0 °F 35.2 °F 15.1 °F 35% 29.61 in 10.0 mi SW 9.2 mph - N/A   Clear
7:53 PM 35.1 °F 28.6 °F 15.1 °F 44% 29.61 in 10.0 mi WSW 8.1 mph - N/A   Clear
8:53 PM 36.0 °F 29.6 °F 16.0 °F 44% 29.59 in 10.0 mi West 8.1 mph - N/A   Clear
9:53 PM 42.1 °F 36.1 °F 18.0 °F 38% 29.58 in 10.0 mi NW 10.4 mph - N/A   Clear
10:53 PM 44.1 °F 38.1 °F 21.0 °F 40% 29.58 in 10.0 mi North 11.5 mph - N/A   Clear
11:53 PM 45.0 °F 37.9 °F 23.0 °F 42% 29.60 in 10.0 mi North 16.1 mph 25.3 mph N/A   Clear